Time,TemperatureF,DewpointF,PressureIn,WindDirection,WindDirectionDegrees,WindSpeedMPH,WindSpeedGustMPH,Humidity,HourlyPrecipIn,Conditions,Clouds,dailyrainin,SoftwareType,DateUTC
2013-07-19 00:01:00,78.7,74.6,30.06,SSE,162,0.0,0.0,87,0.00,,,0.00,VWS V14.01,2013-07-19 04:01:00,
2013-07-19 00:06:00,78.6,74.5,30.07,SW,220,0.0,1.5,87,0.00,,,0.00,VWS V14.01,2013-07-19 04:06:00,
2013-07-19 00:11:00,78.5,74.1,30.06,SSE,155,0.0,1.5,86,0.00,,,0.00,VWS V14.01,2013-07-19 04:11:00,
2013-07-19 00:16:00,78.4,74.0,30.07,SW,217,1.5,1.5,86,0.00,,,0.00,VWS V14.01,2013-07-19 04:16:00,
2013-07-19 00:21:00,78.3,73.9,30.06,SW,217,0.0,1.5,86,0.00,,,0.00,VWS V14.01,2013-07-19 04:21:00,
2013-07-19 00:26:00,78.3,73.9,30.06,SSW,208,1.5,4.5,86,0.00,,,0.00,VWS V14.01,2013-07-19 04:26:00,
2013-07-19 00:31:00,78.2,73.8,30.06,SSW,199,0.0,1.5,86,0.00,,,0.00,VWS V14.01,2013-07-19 04:31:00,
2013-07-19 00:36:00,78.1,73.7,30.06,East,101,0.0,0.0,86,0.00,,,0.00,VWS V14.01,2013-07-19 04:36:00,
2013-07-19 00:41:00,78.1,73.7,30.06,WSW,249,0.0,1.5,86,0.00,,,0.00,VWS V14.01,2013-07-19 04:41:00,
2013-07-19 00:46:00,78.0,73.6,30.06,West,271,1.5,3.0,86,0.00,,,0.00,VWS V14.01,2013-07-19 04:46:00,
2013-07-19 00:51:00,77.8,73.7,30.06,WSW,242,1.5,6.0,87,0.00,,,0.00,VWS V14.01,2013-07-19 04:51:00,
2013-07-19 00:56:00,77.8,73.7,30.06,WSW,242,1.5,6.0,87,0.00,,,0.00,VWS V14.01,2013-07-19 04:56:00,
2013-07-19 01:01:00,77.8,73.4,30.06,WSW,251,1.5,4.5,86,0.00,,,0.00,VWS V14.01,2013-07-19 05:01:00,
2013-07-19 01:06:00,77.8,73.4,30.06,West,274,0.0,1.5,86,0.00,,,0.00,VWS V14.01,2013-07-19 05:06:00,
2013-07-19 01:11:00,77.8,73.4,30.06,West,270,0.0,0.0,86,0.00,,,0.00,VWS V14.01,2013-07-19 05:11:00,
2013-07-19 01:16:00,77.6,73.2,30.06,West,270,0.0,0.0,86,0.00,,,0.00,VWS V14.01,2013-07-19 05:16:00,
2013-07-19 01:21:00,77.5,73.4,30.06,West,270,0.0,0.0,87,0.00,,,0.00,VWS V14.01,2013-07-19 05:21:00,
2013-07-19 01:26:00,77.2,73.1,30.06,West,270,0.0,0.0,87,0.00,,,0.00,VWS V14.01,2013-07-19 05:26:00,
2013-07-19 01:31:00,77.0,73.3,30.06,West,270,0.0,0.0,88,0.00,,,0.00,VWS V14.01,2013-07-19 05:31:00,
2013-07-19 01:36:00,76.7,73.0,30.06,West,270,0.0,1.5,88,0.00,,,0.00,VWS V14.01,2013-07-19 05:36:00,
2013-07-19 01:40:00,76.6,72.9,30.06,West,270,0.0,1.5,88,0.00,,,0.00,VWS V14.01,2013-07-19 05:40:00,
2013-07-19 01:45:00,76.5,73.1,30.06,West,270,0.0,1.5,89,0.00,,,0.00,VWS V14.01,2013-07-19 05:45:00,
2013-07-19 01:50:00,76.5,72.8,30.06,West,270,0.0,0.0,88,0.00,,,0.00,VWS V14.01,2013-07-19 05:50:00,
2013-07-19 01:55:00,76.4,72.7,30.05,West,270,0.0,0.0,88,0.00,,,0.00,VWS V14.01,2013-07-19 05:55:00,
2013-07-19 02:00:00,76.2,72.8,30.05,West,270,0.0,0.0,89,0.00,,,0.00,VWS V14.01,2013-07-19 06:00:00,
2013-07-19 02:05:00,76.1,72.7,30.05,West,270,0.0,0.0,89,0.00,,,0.00,VWS V14.01,2013-07-19 06:05:00,
2013-07-19 02:10:00,76.1,72.7,30.05,West,270,0.0,0.0,89,0.00,,,0.00,VWS V14.01,2013-07-19 06:10:00,
2013-07-19 02:15:00,76.1,72.7,30.06,West,270,0.0,0.0,89,0.00,,,0.00,VWS V14.01,2013-07-19 06:15:00,
2013-07-19 02:20:00,75.9,72.5,30.06,West,270,0.0,0.0,89,0.00,,,0.00,VWS V14.01,2013-07-19 06:20:00,
2013-07-19 02:25:00,75.8,72.4,30.06,West,270,0.0,0.0,89,0.00,,,0.00,VWS V14.01,2013-07-19 06:25:00,
2013-07-19 02:30:00,75.7,72.3,30.06,West,270,0.0,0.0,89,0.00,,,0.00,VWS V14.01,2013-07-19 06:30:00,
2013-07-19 02:35:00,75.6,72.2,30.06,West,270,0.0,0.0,89,0.00,,,0.00,VWS V14.01,2013-07-19 06:35:00,
2013-07-19 02:40:00,75.6,72.5,30.06,West,270,0.0,0.0,90,0.00,,,0.00,VWS V14.01,2013-07-19 06:40:00,
2013-07-19 02:45:00,75.5,72.4,30.05,West,270,0.0,0.0,90,0.00,,,0.00,VWS V14.01,2013-07-19 06:45:00,
2013-07-19 02:50:00,75.4,72.3,30.05,West,270,0.0,0.0,90,0.00,,,0.00,VWS V14.01,2013-07-19 06:50:00,
2013-07-19 02:55:00,75.3,72.2,30.05,West,270,0.0,0.0,90,0.00,,,0.00,VWS V14.01,2013-07-19 06:55:00,
2013-07-19 03:00:00,75.2,72.1,30.05,West,270,0.0,0.0,90,0.00,,,0.00,VWS V14.01,2013-07-19 07:00:00,
2013-07-19 03:05:00,75.2,72.1,30.05,West,270,0.0,0.0,90,0.00,,,0.00,VWS V14.01,2013-07-19 07:05:00,
2013-07-19 03:10:00,75.1,72.0,30.05,West,270,0.0,0.0,90,0.00,,,0.00,VWS V14.01,2013-07-19 07:10:00,
2013-07-19 03:15:00,75.0,71.9,30.05,West,270,0.0,0.0,90,0.00,,,0.00,VWS V14.01,2013-07-19 07:15:00,
2013-07-19 03:20:00,74.9,71.8,30.05,West,270,0.0,0.0,90,0.00,,,0.00,VWS V14.01,2013-07-19 07:20:00,
2013-07-19 03:25:00,74.9,71.8,30.05,West,270,0.0,0.0,90,0.00,,,0.00,VWS V14.01,2013-07-19 07:25:00,
2013-07-19 03:30:00,74.8,71.7,30.04,West,270,0.0,0.0,90,0.00,,,0.00,VWS V14.01,2013-07-19 07:30:00,
2013-07-19 03:35:00,74.9,71.8,30.05,West,270,0.0,0.0,90,0.00,,,0.00,VWS V14.01,2013-07-19 07:35:00,
2013-07-19 03:40:00,74.8,71.7,30.04,West,270,0.0,0.0,90,0.00,,,0.00,VWS V14.01,2013-07-19 07:40:00,
2013-07-19 03:45:00,74.8,71.7,30.04,West,270,0.0,0.0,90,0.00,,,0.00,VWS V14.01,2013-07-19 07:45:00,
2013-07-19 03:50:00,74.8,71.7,30.05,West,270,0.0,0.0,90,0.00,,,0.00,VWS V14.01,2013-07-19 07:50:00,
2013-07-19 03:55:00,74.7,71.6,30.04,West,270,0.0,0.0,90,0.00,,,0.00,VWS V14.01,2013-07-19 07:55:00,
2013-07-19 04:00:00,74.6,71.6,30.04,West,270,0.0,0.0,90,0.00,,,0.00,VWS V14.01,2013-07-19 08:00:00,
2013-07-19 04:05:00,74.6,71.6,30.04,West,270,0.0,0.0,90,0.00,,,0.00,VWS V14.01,2013-07-19 08:05:00,
2013-07-19 04:10:00,74.4,71.3,30.04,West,270,0.0,0.0,90,0.00,,,0.00,VWS V14.01,2013-07-19 08:10:00,
2013-07-19 04:15:00,74.3,71.2,30.04,West,270,0.0,0.0,90,0.00,,,0.00,VWS V14.01,2013-07-19 08:15:00,
2013-07-19 04:20:00,74.3,71.6,30.04,West,270,0.0,0.0,91,0.00,,,0.00,VWS V14.01,2013-07-19 08:20:00,
2013-07-19 04:25:00,74.2,71.2,30.04,West,270,0.0,0.0,90,0.00,,,0.00,VWS V14.01,2013-07-19 08:25:00,
2013-07-19 04:30:00,74.2,71.5,30.04,West,270,0.0,0.0,91,0.00,,,0.00,VWS V14.01,2013-07-19 08:30:00,
2013-07-19 04:35:00,74.1,71.4,30.04,West,270,0.0,0.0,91,0.00,,,0.00,VWS V14.01,2013-07-19 08:35:00,
2013-07-19 04:40:00,74.2,71.5,30.03,West,270,0.0,0.0,91,0.00,,,0.00,VWS V14.01,2013-07-19 08:40:00,
2013-07-19 04:45:00,74.1,71.1,30.03,West,270,0.0,0.0,90,0.00,,,0.00,VWS V14.01,2013-07-19 08:45:00,
2013-07-19 04:50:00,74.0,70.9,30.03,West,270,0.0,0.0,90,0.00,,,0.00,VWS V14.01,2013-07-19 08:50:00,
2013-07-19 04:55:00,73.9,70.8,30.03,West,270,0.0,0.0,90,0.00,,,0.00,VWS V14.01,2013-07-19 08:55:00,
2013-07-19 05:00:00,73.9,71.2,30.03,West,270,0.0,0.0,91,0.00,,,0.00,VWS V14.01,2013-07-19 09:00:00,
2013-07-19 05:05:00,73.7,71.0,30.04,West,270,0.0,0.0,91,0.00,,,0.00,VWS V14.01,2013-07-19 09:05:00,
2013-07-19 05:10:00,73.7,71.0,30.03,West,270,0.0,0.0,91,0.00,,,0.00,VWS V14.01,2013-07-19 09:10:00,
2013-07-19 05:15:00,73.6,70.9,30.03,West,270,0.0,0.0,91,0.00,,,0.00,VWS V14.01,2013-07-19 09:15:00,
2013-07-19 05:20:00,73.7,71.0,30.03,West,270,0.0,1.5,91,0.00,,,0.00,VWS V14.01,2013-07-19 09:20:00,
2013-07-19 05:25:00,73.7,71.0,30.04,West,270,0.0,0.0,91,0.00,,,0.00,VWS V14.01,2013-07-19 09:25:00,
2013-07-19 05:30:00,73.7,71.0,30.04,West,270,0.0,1.5,91,0.00,,,0.00,VWS V14.01,2013-07-19 09:30:00,
2013-07-19 05:35:00,73.7,71.0,30.04,West,270,0.0,1.5,91,0.00,,,0.00,VWS V14.01,2013-07-19 09:35:00,
2013-07-19 05:40:00,73.8,70.8,30.04,West,266,0.0,1.5,90,0.00,,,0.00,VWS V14.01,2013-07-19 09:40:00,
2013-07-19 05:45:00,73.8,70.8,30.04,West,266,0.0,0.0,90,0.00,,,0.00,VWS V14.01,2013-07-19 09:45:00,
2013-07-19 05:50:00,73.7,70.7,30.04,West,265,0.0,0.0,90,0.00,,,0.00,VWS V14.01,2013-07-19 09:50:00,
2013-07-19 05:55:00,73.7,70.7,30.04,West,266,0.0,1.5,90,0.00,,,0.00,VWS V14.01,2013-07-19 09:55:00,
2013-07-19 06:00:00,73.6,70.6,30.04,West,265,0.0,0.0,90,0.00,,,0.00,VWS V14.01,2013-07-19 10:00:00,
2013-07-19 06:05:00,73.5,70.5,30.04,West,265,0.0,0.0,90,0.00,,,0.00,VWS V14.01,2013-07-19 10:05:00,
2013-07-19 06:10:00,73.4,70.4,30.04,West,266,0.0,1.5,90,0.00,,,0.00,VWS V14.01,2013-07-19 10:10:00,
2013-07-19 06:15:00,73.4,70.4,30.04,West,266,0.0,0.0,90,0.00,,,0.00,VWS V14.01,2013-07-19 10:15:00,
2013-07-19 06:20:00,73.4,70.4,30.04,West,266,0.0,0.0,90,0.00,,,0.00,VWS V14.01,2013-07-19 10:20:00,
2013-07-19 06:25:00,73.3,70.3,30.05,West,266,0.0,1.5,90,0.00,,,0.00,VWS V14.01,2013-07-19 10:25:00,
2013-07-19 06:30:00,73.3,70.3,30.05,West,267,0.0,1.5,90,0.00,,,0.00,VWS V14.01,2013-07-19 10:30:00,
2013-07-19 06:35:00,73.2,70.2,30.05,West,267,0.0,0.0,90,0.00,,,0.00,VWS V14.01,2013-07-19 10:35:00,
2013-07-19 06:40:00,73.1,70.1,30.05,West,267,0.0,0.0,90,0.00,,,0.00,VWS V14.01,2013-07-19 10:40:00,
2013-07-19 06:45:00,73.0,70.0,30.05,West,267,0.0,0.0,90,0.00,,,0.00,VWS V14.01,2013-07-19 10:45:00,
2013-07-19 06:50:00,73.0,70.3,30.05,West,267,0.0,0.0,91,0.00,,,0.00,VWS V14.01,2013-07-19 10:50:00,
2013-07-19 06:55:00,72.9,70.2,30.05,West,267,0.0,0.0,91,0.00,,,0.00,VWS V14.01,2013-07-19 10:55:00,
2013-07-19 07:00:00,73.1,70.4,30.05,West,267,0.0,0.0,91,0.00,,,0.00,VWS V14.01,2013-07-19 11:00:00,
2013-07-19 07:05:00,73.1,70.4,30.05,West,267,0.0,0.0,91,0.00,,,0.00,VWS V14.01,2013-07-19 11:05:00,
2013-07-19 07:10:00,73.2,70.5,30.05,West,267,0.0,0.0,91,0.00,,,0.00,VWS V14.01,2013-07-19 11:10:00,
2013-07-19 07:15:00,73.3,70.3,30.05,West,267,0.0,0.0,90,0.00,,,0.00,VWS V14.01,2013-07-19 11:15:00,
2013-07-19 07:20:00,73.5,70.5,30.05,West,267,0.0,0.0,90,0.00,,,0.00,VWS V14.01,2013-07-19 11:20:00,
2013-07-19 07:25:00,73.6,70.6,30.05,West,267,0.0,0.0,90,0.00,,,0.00,VWS V14.01,2013-07-19 11:25:00,
2013-07-19 07:30:00,73.8,70.8,30.05,West,267,0.0,0.0,90,0.00,,,0.00,VWS V14.01,2013-07-19 11:30:00,
2013-07-19 07:35:00,74.1,70.7,30.05,WSW,255,0.0,3.0,89,0.00,,,0.00,VWS V14.01,2013-07-19 11:35:00,
2013-07-19 07:40:00,74.4,71.0,30.05,WSW,258,1.5,3.0,89,0.00,,,0.00,VWS V14.01,2013-07-19 11:40:00,
2013-07-19 07:45:00,74.6,70.9,30.05,WSW,251,1.5,3.0,88,0.00,,,0.00,VWS V14.01,2013-07-19 11:45:00,
2013-07-19 07:50:00,74.9,70.9,30.05,WSW,249,1.5,6.0,87,0.00,,,0.00,VWS V14.01,2013-07-19 11:50:00,
2013-07-19 07:55:00,75.1,70.7,30.05,West,263,3.0,4.5,86,0.00,,,0.00,VWS V14.01,2013-07-19 11:55:00,
2013-07-19 08:00:00,75.2,70.8,30.05,WSW,239,0.0,3.0,86,0.00,,,0.00,VWS V14.01,2013-07-19 12:00:00,
2013-07-19 08:05:00,75.5,71.1,30.05,WSW,255,6.0,7.5,86,0.00,,,0.00,VWS V14.01,2013-07-19 12:05:00,
2013-07-19 08:10:00,75.7,71.0,30.05,West,260,1.5,7.5,85,0.00,,,0.00,VWS V14.01,2013-07-19 12:10:00,
2013-07-19 08:15:00,75.9,71.2,30.05,WSW,241,3.0,6.0,85,0.00,,,0.00,VWS V14.01,2013-07-19 12:15:00,
2013-07-19 08:20:00,76.2,71.5,30.05,WSW,255,1.5,3.0,85,0.00,,,0.00,VWS V14.01,2013-07-19 12:20:00,
2013-07-19 08:25:00,76.6,71.5,30.05,WSW,256,3.0,6.0,84,0.00,,,0.00,VWS V14.01,2013-07-19 12:25:00,
2013-07-19 08:30:00,76.7,71.3,30.05,WSW,244,3.0,6.0,83,0.00,,,0.00,VWS V14.01,2013-07-19 12:30:00,
2013-07-19 08:35:00,77.0,71.6,30.06,West,259,3.0,6.0,83,0.00,,,0.00,VWS V14.01,2013-07-19 12:35:00,
2013-07-19 08:40:00,77.2,71.4,30.06,SW,217,3.0,6.0,82,0.00,,,0.00,VWS V14.01,2013-07-19 12:40:00,
2013-07-19 08:45:00,77.4,71.6,30.06,WSW,252,3.0,3.0,82,0.00,,,0.00,VWS V14.01,2013-07-19 12:45:00,
2013-07-19 08:49:00,77.8,71.7,30.06,West,262,4.5,7.5,81,0.00,,,0.00,VWS V14.01,2013-07-19 12:49:00,
2013-07-19 08:54:00,78.0,71.5,30.06,West,267,1.5,6.0,81,0.00,,,0.00,VWS V14.01,2013-07-19 12:54:00,
2013-07-19 08:59:00,78.4,71.9,30.06,WSW,255,3.0,6.0,81,0.00,,,0.00,VWS V14.01,2013-07-19 12:59:00,
2013-07-19 09:04:00,78.8,72.3,30.06,SW,227,3.0,6.0,81,0.00,,,0.00,VWS V14.01,2013-07-19 13:04:00,
2013-07-19 09:09:00,79.2,72.3,30.06,SW,231,3.0,6.0,80,0.00,,,0.00,VWS V14.01,2013-07-19 13:09:00,
2013-07-19 09:14:00,79.2,72.3,30.06,West,265,4.5,4.5,80,0.00,,,0.00,VWS V14.01,2013-07-19 13:14:00,
2013-07-19 09:19:00,79.3,72.4,30.06,West,271,4.5,9.0,80,0.00,,,0.00,VWS V14.01,2013-07-19 13:19:00,
2013-07-19 09:24:00,79.5,72.6,30.06,West,271,4.5,7.5,80,0.00,,,0.00,VWS V14.01,2013-07-19 13:24:00,
2013-07-19 09:26:00,79.6,72.4,30.06,WSW,249,9.0,9.0,79,0.00,,,0.00,VWS V14.01,2013-07-19 13:26:00,
2013-07-19 09:31:00,79.8,72.9,30.06,SW,230,3.0,6.0,80,0.00,,,0.00,VWS V14.01,2013-07-19 13:31:00,
2013-07-19 09:36:00,80.3,73.0,30.06,West,264,3.0,9.0,79,0.00,,,0.00,VWS V14.01,2013-07-19 13:36:00,
2013-07-19 09:41:00,80.5,73.2,30.06,WSW,242,6.0,7.5,79,0.00,,,0.00,VWS V14.01,2013-07-19 13:41:00,
2013-07-19 09:46:00,80.7,73.4,30.06,SW,234,9.0,9.0,79,0.00,,,0.00,VWS V14.01,2013-07-19 13:46:00,
2013-07-19 09:51:00,80.9,73.2,30.06,SW,231,6.0,7.5,78,0.00,,,0.00,VWS V14.01,2013-07-19 13:51:00,
2013-07-19 09:56:00,81.2,73.5,30.06,SW,228,4.5,10.5,78,0.00,,,0.00,VWS V14.01,2013-07-19 13:56:00,
2013-07-19 10:01:00,81.4,73.4,30.06,WSW,251,6.0,9.0,77,0.00,,,0.00,VWS V14.01,2013-07-19 14:01:00,
2013-07-19 10:06:00,81.4,73.4,30.06,WSW,251,10.5,10.5,77,0.00,,,0.00,VWS V14.01,2013-07-19 14:06:00,
2013-07-19 10:11:00,81.7,73.3,30.06,WSW,258,6.0,9.0,76,0.00,,,0.00,VWS V14.01,2013-07-19 14:11:00,
2013-07-19 10:16:00,82.0,73.6,30.06,SW,232,6.0,10.5,76,0.00,,,0.00,VWS V14.01,2013-07-19 14:16:00,
2013-07-19 10:21:00,82.8,73.9,30.05,West,263,7.5,7.5,75,0.00,,,0.00,VWS V14.01,2013-07-19 14:21:00,
2013-07-19 10:26:00,82.8,73.6,30.06,West,263,9.0,13.5,74,0.00,,,0.00,VWS V14.01,2013-07-19 14:26:00,
2013-07-19 10:31:00,82.8,73.6,30.06,WSW,239,6.0,10.5,74,0.00,,,0.00,VWS V14.01,2013-07-19 14:31:00,
2013-07-19 10:36:00,83.1,73.8,30.06,West,272,9.0,12.0,74,0.00,,,0.00,VWS V14.01,2013-07-19 14:36:00,
2013-07-19 10:41:00,83.5,73.8,30.06,NW,315,3.0,9.0,73,0.00,,,0.00,VWS V14.01,2013-07-19 14:41:00,
2013-07-19 10:46:00,83.7,73.6,30.06,West,273,4.5,13.5,72,0.00,,,0.00,VWS V14.01,2013-07-19 14:46:00,
2013-07-19 10:51:00,84.0,74.3,30.06,West,263,3.0,6.0,73,0.00,,,0.00,VWS V14.01,2013-07-19 14:51:00,
2013-07-19 10:56:00,84.7,74.6,30.06,West,269,3.0,9.0,72,0.00,,,0.00,VWS V14.01,2013-07-19 14:56:00,
2013-07-19 11:01:00,84.7,73.3,30.06,WNW,289,7.5,13.5,69,0.00,,,0.00,VWS V14.01,2013-07-19 15:01:00,
2013-07-19 11:06:00,84.3,73.4,30.06,SW,230,7.5,15.0,70,0.00,,,0.00,VWS V14.01,2013-07-19 15:06:00,
2013-07-19 11:11:00,84.2,73.3,30.06,WSW,258,9.0,12.0,70,0.00,,,0.00,VWS V14.01,2013-07-19 15:11:00,
2013-07-19 11:16:00,84.3,73.4,30.06,WSW,253,10.5,13.5,70,0.00,,,0.00,VWS V14.01,2013-07-19 15:16:00,
2013-07-19 11:20:00,84.0,73.5,30.06,WNW,296,9.0,10.5,71,0.00,,,0.00,VWS V14.01,2013-07-19 15:20:00,
2013-07-19 11:25:00,84.1,73.6,30.06,West,274,3.0,6.0,71,0.00,,,0.00,VWS V14.01,2013-07-19 15:25:00,
2013-07-19 11:30:00,84.5,73.2,30.06,NW,311,3.0,12.0,69,0.00,,,0.00,VWS V14.01,2013-07-19 15:30:00,
2013-07-19 11:35:00,84.8,73.9,30.06,WNW,296,10.5,10.5,70,0.00,,,0.00,VWS V14.01,2013-07-19 15:35:00,
2013-07-19 11:40:00,85.1,73.3,30.06,NW,321,6.0,10.5,68,0.00,,,0.00,VWS V14.01,2013-07-19 15:40:00,
2013-07-19 11:45:00,86.0,74.2,30.06,WNW,284,4.5,7.5,68,0.00,,,0.00,VWS V14.01,2013-07-19 15:45:00,
2013-07-19 11:50:00,86.5,74.2,30.06,NW,321,3.0,6.0,67,0.00,,,0.00,VWS V14.01,2013-07-19 15:50:00,
2013-07-19 11:55:00,86.8,74.1,30.06,NW,315,6.0,7.5,66,0.00,,,0.00,VWS V14.01,2013-07-19 15:55:00,
2013-07-19 12:00:00,86.7,73.5,30.06,SW,235,3.0,12.0,65,0.00,,,0.00,VWS V14.01,2013-07-19 16:00:00,
2013-07-19 12:05:00,87.0,74.3,30.06,WSW,258,4.5,6.0,66,0.00,,,0.00,VWS V14.01,2013-07-19 16:05:00,
2013-07-19 12:10:00,87.1,73.9,30.05,WSW,252,4.5,13.5,65,0.00,,,0.00,VWS V14.01,2013-07-19 16:10:00,
2013-07-19 12:15:00,86.9,73.3,30.05,WSW,246,4.5,16.5,64,0.00,,,0.00,VWS V14.01,2013-07-19 16:15:00,
2013-07-19 12:20:00,86.6,73.4,30.05,West,269,4.5,13.5,65,0.00,,,0.00,VWS V14.01,2013-07-19 16:20:00,
2013-07-19 12:25:00,86.9,72.8,30.05,West,272,10.5,15.0,63,0.00,,,0.00,VWS V14.01,2013-07-19 16:25:00,
2013-07-19 12:30:00,87.3,74.1,30.05,West,262,6.0,12.0,65,0.00,,,0.00,VWS V14.01,2013-07-19 16:30:00,
2013-07-19 12:35:00,87.7,74.5,30.05,West,262,7.5,9.0,65,0.00,,,0.00,VWS V14.01,2013-07-19 16:35:00,
2013-07-19 12:40:00,87.3,74.1,30.04,WSW,253,7.5,13.5,65,0.00,,,0.00,VWS V14.01,2013-07-19 16:40:00,
2013-07-19 12:45:00,87.5,74.3,30.04,WSW,246,7.5,7.5,65,0.00,,,0.00,VWS V14.01,2013-07-19 16:45:00,
2013-07-19 12:50:00,87.5,74.3,30.04,WNW,289,9.0,12.0,65,0.00,,,0.00,VWS V14.01,2013-07-19 16:50:00,
2013-07-19 12:55:00,87.9,74.7,30.04,SW,232,10.5,12.0,65,0.00,,,0.00,VWS V14.01,2013-07-19 16:55:00,
2013-07-19 13:00:00,87.7,75.4,30.04,West,279,6.0,18.0,67,0.00,,,0.00,VWS V14.01,2013-07-19 17:00:00,
2013-07-19 13:05:00,87.7,74.9,30.04,West,279,4.5,15.0,66,0.00,,,0.00,VWS V14.01,2013-07-19 17:05:00,
2013-07-19 13:10:00,87.3,75.4,30.03,West,273,7.5,15.0,68,0.00,,,0.00,VWS V14.01,2013-07-19 17:10:00,
2013-07-19 13:15:00,87.6,75.3,30.03,West,266,6.0,13.5,67,0.00,,,0.00,VWS V14.01,2013-07-19 17:15:00,
2013-07-19 13:20:00,87.8,75.4,30.03,West,271,7.5,12.0,67,0.00,,,0.00,VWS V14.01,2013-07-19 17:20:00,
2013-07-19 13:25:00,88.1,75.7,30.02,West,274,1.5,15.0,67,0.00,,,0.00,VWS V14.01,2013-07-19 17:25:00,
2013-07-19 13:30:00,87.8,75.0,30.02,West,269,1.5,12.0,66,0.00,,,0.00,VWS V14.01,2013-07-19 17:30:00,
2013-07-19 13:35:00,87.7,74.9,30.02,NW,307,7.5,9.0,66,0.00,,,0.00,VWS V14.01,2013-07-19 17:35:00,
2013-07-19 13:40:00,87.9,75.6,30.01,WSW,253,10.5,16.5,67,0.00,,,0.00,VWS V14.01,2013-07-19 17:40:00,
2013-07-19 13:45:00,88.4,76.0,30.01,WSW,258,10.5,12.0,67,0.00,,,0.00,VWS V14.01,2013-07-19 17:45:00,
2013-07-19 13:50:00,88.3,75.5,30.01,West,279,16.5,16.5,66,0.00,,,0.00,VWS V14.01,2013-07-19 17:50:00,
2013-07-19 13:55:00,87.8,75.4,30.01,WSW,244,3.0,7.5,67,0.00,,,0.00,VWS V14.01,2013-07-19 17:55:00,
2013-07-19 14:00:00,87.9,75.1,30.00,West,274,6.0,9.0,66,0.00,,,0.00,VWS V14.01,2013-07-19 18:00:00,
2013-07-19 14:05:00,87.7,74.9,30.00,WNW,296,4.5,10.5,66,0.00,,,0.00,VWS V14.01,2013-07-19 18:05:00,
2013-07-19 14:10:00,88.2,74.9,30.00,SSW,211,7.5,10.5,65,0.00,,,0.00,VWS V14.01,2013-07-19 18:10:00,
2013-07-19 14:15:00,89.2,75.4,30.00,WSW,239,10.5,10.5,64,0.00,,,0.00,VWS V14.01,2013-07-19 18:15:00,
2013-07-19 14:20:00,89.2,75.0,30.00,WSW,242,13.5,18.0,63,0.00,,,0.00,VWS V14.01,2013-07-19 18:20:00,
2013-07-19 14:25:00,89.2,74.5,29.99,WSW,252,9.0,10.5,62,0.00,,,0.00,VWS V14.01,2013-07-19 18:25:00,
2013-07-19 14:30:00,89.7,75.0,29.99,West,271,7.5,13.5,62,0.00,,,0.00,VWS V14.01,2013-07-19 18:30:00,
2013-07-19 14:35:00,89.6,74.9,29.99,WNW,301,10.5,15.0,62,0.00,,,0.00,VWS V14.01,2013-07-19 18:35:00,
2013-07-19 14:40:00,89.9,74.7,29.99,WSW,251,7.5,15.0,61,0.00,,,0.00,VWS V14.01,2013-07-19 18:40:00,
2013-07-19 14:45:00,89.9,73.8,29.99,West,273,10.5,16.5,59,0.00,,,0.00,VWS V14.01,2013-07-19 18:45:00,
2013-07-19 14:50:00,90.1,75.4,29.99,West,271,10.5,10.5,62,0.00,,,0.00,VWS V14.01,2013-07-19 18:50:00,
2013-07-19 14:55:00,90.0,74.3,29.98,NW,314,4.5,12.0,60,0.00,,,0.00,VWS V14.01,2013-07-19 18:55:00,
2013-07-19 15:00:00,90.3,74.6,29.98,West,266,4.5,15.0,60,0.00,,,0.00,VWS V14.01,2013-07-19 19:00:00,
2013-07-19 15:05:00,90.7,73.5,29.98,WSW,258,10.5,13.5,57,0.00,,,0.00,VWS V14.01,2013-07-19 19:05:00,
2013-07-19 15:10:00,90.7,72.5,29.98,WNW,287,9.0,16.5,55,0.00,,,0.00,VWS V14.01,2013-07-19 19:10:00,
2013-07-19 15:15:00,90.8,73.1,29.98,WSW,246,16.5,16.5,56,0.00,,,0.00,VWS V14.01,2013-07-19 19:15:00,
2013-07-19 15:20:00,90.7,73.5,29.97,West,273,9.0,16.5,57,0.00,,,0.00,VWS V14.01,2013-07-19 19:20:00,
2013-07-19 15:25:00,90.6,73.9,29.97,West,262,9.0,16.5,58,0.00,,,0.00,VWS V14.01,2013-07-19 19:25:00,
2013-07-19 15:30:00,90.8,74.6,29.97,West,271,6.0,10.5,59,0.00,,,0.00,VWS V14.01,2013-07-19 19:30:00,
2013-07-19 15:35:00,91.1,73.9,29.97,WNW,298,10.5,12.0,57,0.00,,,0.00,VWS V14.01,2013-07-19 19:35:00,
2013-07-19 15:40:00,91.0,73.3,29.97,West,269,9.0,19.5,56,0.00,,,0.00,VWS V14.01,2013-07-19 19:40:00,
2013-07-19 15:45:00,90.8,73.6,29.97,West,279,4.5,10.5,57,0.00,,,0.00,VWS V14.01,2013-07-19 19:45:00,
2013-07-19 15:50:00,90.8,73.1,29.96,West,272,3.0,12.0,56,0.00,,,0.00,VWS V14.01,2013-07-19 19:50:00,
2013-07-19 15:55:00,90.7,74.0,29.96,WSW,242,18.0,18.0,58,0.00,,,0.00,VWS V14.01,2013-07-19 19:55:00,
2013-07-19 16:00:00,89.4,73.3,29.96,WNW,290,19.5,24.0,59,0.00,,,0.00,VWS V14.01,2013-07-19 20:00:00,
2013-07-19 16:05:00,87.9,71.4,29.96,NW,317,12.0,19.5,58,0.00,,,0.00,VWS V14.01,2013-07-19 20:05:00,
2013-07-19 16:10:00,86.8,70.4,29.96,WNW,298,12.0,13.5,58,0.00,,,0.00,VWS V14.01,2013-07-19 20:10:00,
2013-07-19 16:15:00,86.1,69.2,29.96,WNW,283,7.5,12.0,57,0.00,,,0.00,VWS V14.01,2013-07-19 20:15:00,
2013-07-19 16:20:00,85.4,69.1,29.96,WNW,296,10.5,13.5,58,0.00,,,0.00,VWS V14.01,2013-07-19 20:20:00,
2013-07-19 16:25:00,85.2,69.8,29.96,West,276,4.5,9.0,60,0.00,,,0.00,VWS V14.01,2013-07-19 20:25:00,
2013-07-19 16:30:00,85.1,70.2,29.97,NW,310,3.0,7.5,61,0.00,,,0.00,VWS V14.01,2013-07-19 20:30:00,
2013-07-19 16:35:00,85.1,70.2,29.97,NW,310,4.5,6.0,61,0.00,,,0.00,VWS V14.01,2013-07-19 20:35:00,
2013-07-19 16:40:00,85.3,70.4,29.97,West,269,3.0,3.0,61,0.00,,,0.00,VWS V14.01,2013-07-19 20:40:00,
2013-07-19 16:45:00,86.2,71.7,29.96,NW,314,0.0,3.0,62,0.00,,,0.00,VWS V14.01,2013-07-19 20:45:00,
2013-07-19 16:50:00,86.4,70.5,29.96,WSW,239,3.0,4.5,59,0.00,,,0.00,VWS V14.01,2013-07-19 20:50:00,
2013-07-19 16:55:00,86.4,70.5,29.96,West,272,1.6,4.8,59,0.00,,,0.00,VWS V14.01,2013-07-19 20:55:00,
2013-07-19 17:00:00,86.8,71.3,29.95,West,261,1.6,8.0,60,0.00,,,0.00,VWS V14.01,2013-07-19 21:00:00,
2013-07-19 17:05:00,87.4,71.9,29.95,West,273,1.6,3.2,60,0.00,,,0.00,VWS V14.01,2013-07-19 21:05:00,
2013-07-19 17:10:00,87.5,71.0,29.94,NW,308,6.4,9.6,58,0.00,,,0.00,VWS V14.01,2013-07-19 21:10:00,
2013-07-19 17:15:00,87.4,71.9,29.94,WNW,282,4.8,11.2,60,0.00,,,0.00,VWS V14.01,2013-07-19 21:15:00,
2013-07-19 17:20:00,87.8,72.3,29.94,West,263,1.6,6.4,60,0.00,,,0.00,VWS V14.01,2013-07-19 21:20:00,
2013-07-19 17:25:00,87.9,71.9,29.93,West,276,4.8,6.4,59,0.00,,,0.00,VWS V14.01,2013-07-19 21:25:00,
2013-07-19 17:30:00,88.2,72.6,29.93,WNW,291,4.8,6.4,60,0.00,,,0.00,VWS V14.01,2013-07-19 21:30:00,
2013-07-19 17:35:00,88.6,73.0,29.93,NW,315,9.6,16.0,60,0.00,,,0.00,VWS V14.01,2013-07-19 21:35:00,
2013-07-19 17:40:00,88.9,71.8,29.93,WNW,286,6.4,16.0,57,0.00,,,0.00,VWS V14.01,2013-07-19 21:40:00,
2013-07-19 17:44:00,89.2,72.6,29.93,West,280,9.6,12.8,58,0.00,,,0.00,VWS V14.01,2013-07-19 21:44:00,
2013-07-19 17:49:00,89.7,72.6,29.93,WNW,289,11.2,11.2,57,0.00,,,0.00,VWS V14.01,2013-07-19 21:49:00,
2013-07-19 17:54:00,90.3,73.1,29.93,West,277,8.0,11.2,57,0.00,,,0.00,VWS V14.01,2013-07-19 21:54:00,
2013-07-19 17:55:00,90.3,73.1,29.93,West,261,9.6,11.2,57,0.00,,,0.00,VWS V14.01,2013-07-19 21:55:00,
2013-07-19 18:00:00,91.1,72.8,29.93,NW,311,9.6,11.2,55,0.00,,,0.00,VWS V14.01,2013-07-19 22:00:00,
2013-07-19 18:05:00,90.6,71.3,29.93,NNW,334,6.4,17.6,53,0.00,,,0.00,VWS V14.01,2013-07-19 22:05:00,
2013-07-19 18:10:00,90.8,72.1,29.93,NW,318,14.4,14.4,54,0.00,,,0.00,VWS V14.01,2013-07-19 22:10:00,
2013-07-19 18:15:00,90.7,72.0,29.93,West,270,4.8,9.6,54,0.00,,,0.00,VWS V14.01,2013-07-19 22:15:00,
2013-07-19 18:20:00,90.7,72.0,29.93,WNW,299,14.4,17.6,54,0.00,,,0.00,VWS V14.01,2013-07-19 22:20:00,
2013-07-19 18:25:00,90.5,71.8,29.93,WNW,294,12.8,14.4,54,0.00,,,0.00,VWS V14.01,2013-07-19 22:25:00,
2013-07-19 18:30:00,90.3,71.6,29.92,NW,320,8.0,12.8,54,0.00,,,0.00,VWS V14.01,2013-07-19 22:30:00,
2013-07-19 18:35:00,90.2,72.0,29.92,West,265,11.2,14.4,55,0.00,,,0.00,VWS V14.01,2013-07-19 22:35:00,
2013-07-19 18:40:00,90.1,71.9,29.92,WNW,288,17.6,17.6,55,0.00,,,0.00,VWS V14.01,2013-07-19 22:40:00,
2013-07-19 18:45:00,89.7,71.6,29.92,West,273,9.6,14.4,55,0.00,,,0.00,VWS V14.01,2013-07-19 22:45:00,
2013-07-19 18:50:00,89.7,72.1,29.92,WSW,254,8.0,12.8,56,0.00,,,0.00,VWS V14.01,2013-07-19 22:50:00,
2013-07-19 18:55:00,89.7,71.6,29.92,WNW,294,11.2,14.4,55,0.00,,,0.00,VWS V14.01,2013-07-19 22:55:00,
2013-07-19 19:00:00,89.3,71.7,29.92,SW,223,3.2,11.2,56,0.00,,,0.00,VWS V14.01,2013-07-19 23:00:00,
2013-07-19 19:05:00,88.8,71.7,29.92,West,279,9.6,11.2,57,0.00,,,0.00,VWS V14.01,2013-07-19 23:05:00,
2013-07-19 19:09:00,89.2,72.1,29.92,WNW,282,6.4,11.2,57,0.00,,,0.00,VWS V14.01,2013-07-19 23:09:00,
2013-07-19 19:14:00,89.2,71.6,29.92,WNW,294,6.4,12.8,56,0.00,,,0.00,VWS V14.01,2013-07-19 23:14:00,
2013-07-19 19:19:00,89.2,71.6,29.92,WSW,254,11.2,14.4,56,0.00,,,0.00,VWS V14.01,2013-07-19 23:19:00,
2013-07-19 19:24:00,89.2,71.6,29.92,West,261,6.4,12.8,56,0.00,,,0.00,VWS V14.01,2013-07-19 23:24:00,
2013-07-19 19:29:00,89.2,71.6,29.92,WNW,282,4.8,12.8,56,0.00,,,0.00,VWS V14.01,2013-07-19 23:29:00,
2013-07-19 19:34:00,89.2,72.1,29.92,WSW,251,8.0,12.8,57,0.00,,,0.00,VWS V14.01,2013-07-19 23:34:00,
2013-07-19 19:39:00,88.7,73.1,29.92,WSW,247,6.4,11.2,60,0.00,,,0.00,VWS V14.01,2013-07-19 23:39:00,
2013-07-19 19:44:00,88.1,73.5,29.93,WSW,258,12.8,12.8,62,0.00,,,0.00,VWS V14.01,2013-07-19 23:44:00,
2013-07-19 19:49:00,87.9,73.8,29.93,WSW,258,9.6,11.2,63,0.00,,,0.00,VWS V14.01,2013-07-19 23:49:00,
2013-07-19 19:54:00,87.7,74.0,29.93,West,262,12.8,12.8,64,0.00,,,0.00,VWS V14.01,2013-07-19 23:54:00,
2013-07-19 19:59:00,87.4,73.7,29.92,SW,220,4.8,8.0,64,0.00,,,0.00,VWS V14.01,2013-07-19 23:59:00,
2013-07-19 20:04:00,87.2,74.0,29.93,West,262,4.8,6.4,65,0.00,,,0.00,VWS V14.01,2013-07-20 00:04:00,
2013-07-19 20:09:00,87.0,73.8,29.93,West,263,3.2,9.6,65,0.00,,,0.00,VWS V14.01,2013-07-20 00:09:00,
2013-07-19 20:14:00,86.7,73.5,29.93,SSW,194,6.4,12.8,65,0.00,,,0.00,VWS V14.01,2013-07-20 00:14:00,
2013-07-19 20:19:00,86.5,73.3,29.93,WSW,256,6.4,16.0,65,0.00,,,0.00,VWS V14.01,2013-07-20 00:19:00,
2013-07-19 20:24:00,86.0,73.3,29.93,WSW,246,3.2,9.6,66,0.00,,,0.00,VWS V14.01,2013-07-20 00:24:00,
2013-07-19 20:29:00,85.6,73.4,29.94,WSW,256,1.6,6.4,67,0.00,,,0.00,VWS V14.01,2013-07-20 00:29:00,
2013-07-19 20:34:00,85.3,73.5,29.94,WSW,239,4.8,4.8,68,0.00,,,0.00,VWS V14.01,2013-07-20 00:34:00,
2013-07-19 20:39:00,84.9,73.1,29.94,SW,235,9.6,9.6,68,0.00,,,0.00,VWS V14.01,2013-07-20 00:39:00,
2013-07-19 20:44:00,84.5,73.2,29.94,West,268,3.2,11.2,69,0.00,,,0.00,VWS V14.01,2013-07-20 00:44:00,
2013-07-19 20:49:00,84.2,73.3,29.94,WSW,249,4.8,6.4,70,0.00,,,0.00,VWS V14.01,2013-07-20 00:49:00,
2013-07-19 20:54:00,84.0,73.1,29.94,WSW,244,9.6,9.6,70,0.00,,,0.00,VWS V14.01,2013-07-20 00:54:00,
2013-07-19 20:59:00,83.7,72.8,29.94,West,277,3.2,9.6,70,0.00,,,0.00,VWS V14.01,2013-07-20 00:59:00,
2013-07-19 21:04:00,83.5,73.0,29.94,WSW,253,9.6,11.2,71,0.00,,,0.00,VWS V14.01,2013-07-20 01:04:00,
2013-07-19 21:09:00,83.3,72.8,29.94,SW,235,3.2,4.8,71,0.00,,,0.00,VWS V14.01,2013-07-20 01:09:00,
2013-07-19 21:14:00,83.1,73.1,29.94,WSW,258,0.0,3.2,72,0.00,,,0.00,VWS V14.01,2013-07-20 01:14:00,
2013-07-19 21:19:00,82.8,73.2,29.94,SW,235,0.0,3.2,73,0.00,,,0.00,VWS V14.01,2013-07-20 01:19:00,
2013-07-19 21:24:00,82.6,73.0,29.94,West,279,6.4,6.4,73,0.00,,,0.00,VWS V14.01,2013-07-20 01:24:00,
2013-07-19 21:29:00,82.4,72.8,29.94,West,266,3.2,4.8,73,0.00,,,0.00,VWS V14.01,2013-07-20 01:29:00,
2013-07-19 21:34:00,82.2,73.0,29.94,WSW,238,3.2,3.2,74,0.00,,,0.00,VWS V14.01,2013-07-20 01:34:00,
2013-07-19 21:39:00,82.0,72.8,29.94,WSW,256,4.8,6.4,74,0.00,,,0.00,VWS V14.01,2013-07-20 01:39:00,
2013-07-19 21:44:00,81.9,72.7,29.94,WSW,245,8.0,8.0,74,0.00,,,0.00,VWS V14.01,2013-07-20 01:44:00,
2013-07-19 21:49:00,81.8,72.6,29.94,West,273,4.8,9.6,74,0.00,,,0.00,VWS V14.01,2013-07-20 01:49:00,
2013-07-19 21:54:00,81.8,72.6,29.95,West,259,3.2,6.4,74,0.00,,,0.00,VWS V14.01,2013-07-20 01:54:00,
2013-07-19 21:59:00,81.6,72.8,29.95,West,273,3.2,6.4,75,0.00,,,0.00,VWS V14.01,2013-07-20 01:59:00,
2013-07-19 22:04:00,81.5,72.7,29.95,West,280,3.2,3.2,75,0.00,,,0.00,VWS V14.01,2013-07-20 02:04:00,
2013-07-19 22:09:00,81.4,72.6,29.95,WNW,286,1.6,1.6,75,0.00,,,0.00,VWS V14.01,2013-07-20 02:09:00,
2013-07-19 22:14:00,81.3,72.9,29.96,WNW,286,1.6,1.6,76,0.00,,,0.00,VWS V14.01,2013-07-20 02:14:00,
2013-07-19 22:19:00,81.1,72.7,29.96,WSW,248,3.2,3.2,76,0.00,,,0.00,VWS V14.01,2013-07-20 02:19:00,
2013-07-19 22:24:00,80.8,72.8,29.96,West,259,0.0,4.8,77,0.00,,,0.00,VWS V14.01,2013-07-20 02:24:00,
2013-07-19 22:29:00,80.7,72.7,29.96,WNW,286,0.0,1.6,77,0.00,,,0.00,VWS V14.01,2013-07-20 02:29:00,
2013-07-19 22:34:00,80.4,72.4,29.96,West,279,1.6,3.2,77,0.00,,,0.00,VWS V14.01,2013-07-20 02:34:00,
2013-07-19 22:39:00,80.2,72.6,29.96,WSW,245,3.2,4.8,78,0.00,,,0.00,VWS V14.01,2013-07-20 02:39:00,
2013-07-19 22:44:00,80.1,72.5,29.96,West,268,1.6,6.4,78,0.00,,,0.00,VWS V14.01,2013-07-20 02:44:00,
2013-07-19 22:49:00,80.1,72.5,29.95,WSW,244,3.2,4.8,78,0.00,,,0.00,VWS V14.01,2013-07-20 02:49:00,
2013-07-19 22:54:00,80.2,72.6,29.96,SW,224,3.2,6.4,78,0.00,,,0.00,VWS V14.01,2013-07-20 02:54:00,
2013-07-19 22:59:00,80.1,72.5,29.95,West,280,1.6,4.8,78,0.00,,,0.00,VWS V14.01,2013-07-20 02:59:00,
2013-07-19 23:04:00,80.1,72.8,29.95,WSW,244,1.6,8.0,79,0.00,,,0.00,VWS V14.01,2013-07-20 03:04:00,
2013-07-19 23:09:00,80.1,72.8,29.95,West,272,4.8,6.4,79,0.00,,,0.00,VWS V14.01,2013-07-20 03:09:00,
2013-07-19 23:14:00,80.0,72.7,29.95,West,259,3.2,4.8,79,0.00,,,0.00,VWS V14.01,2013-07-20 03:14:00,
2013-07-19 23:19:00,79.9,72.7,29.95,SW,224,6.4,9.6,79,0.00,,,0.00,VWS V14.01,2013-07-20 03:19:00,
2013-07-19 23:24:00,79.9,72.7,29.95,WSW,249,4.8,9.6,79,0.00,,,0.00,VWS V14.01,2013-07-20 03:24:00,
2013-07-19 23:29:00,80.0,72.7,29.95,SW,231,1.6,6.4,79,0.00,,,0.00,VWS V14.01,2013-07-20 03:29:00,
2013-07-19 23:34:00,79.9,72.7,29.95,WSW,242,1.6,1.6,79,0.00,,,0.00,VWS V14.01,2013-07-20 03:34:00,
2013-07-19 23:39:00,79.8,72.6,29.95,West,259,1.6,3.2,79,0.00,,,0.00,VWS V14.01,2013-07-20 03:39:00,
2013-07-19 23:44:00,79.7,72.8,29.95,WSW,252,1.6,9.6,80,0.00,,,0.00,VWS V14.01,2013-07-20 03:44:00,
2013-07-19 23:49:00,79.6,72.7,29.95,WSW,256,1.6,4.8,80,0.00,,,0.00,VWS V14.01,2013-07-20 03:49:00,
2013-07-19 23:54:00,79.4,72.5,29.95,WSW,252,1.6,4.8,80,0.00,,,0.00,VWS V14.01,2013-07-20 03:54:00,
2013-07-19 23:59:00,79.3,72.4,29.95,West,259,3.2,4.8,80,0.00,,,0.00,VWS V14.01,2013-07-20 03:59:00,